{"data":{"norad_id":59409,"epoch":"2026-05-24T17:04:13.882656Z","epoch_age_seconds":110029,"freshness":"FRESH","line1":"1 59409U 24064M   26144.71127179  .00001950  00000+0  80372-4 0  9993","line2":"2 59409  43.0032 336.3352 0000995 265.7729  94.3009 15.27569693120918","mean_motion":15.27569693,"eccentricity":9.95e-5,"inclination_deg":43.0032,"raan_deg":336.3352,"arg_perigee_deg":265.7729,"mean_anomaly_deg":94.3009,"bstar":8.0372e-5,"rev_number":12091,"period_min":94.267384761475,"perigee_km":482.39726799168,"apogee_km":483.76265016654,"semimajor_km":6861.2169590791,"source":"CELESTRAK","updated_at":"2026-05-25T13:38:18.940803Z"}}